Capitol Logistics 447


KSLC
Salt Lake City International Airport
Salt Lake City, Utah, US
KMSP
Minneapolis-St Paul International Airport
Minneapolis, Minnesota, US

Activity Log

Date Flight Route Aircraft Duration
No Flights Yet

Route Details

Aircraft Information
Primary: Boeing 757-200SF
Backup: Boeing 737-800BCF
Route Data
Distance: 860nm
Sched. Duration: 2h 29m
Avg. Duration: 0h 00m (-230m)
Times Flown: 0
Recm'd Route: RUGGD1 OCS CKW MBW BFF ANW SSWAN TORGY3
Planned Altitude: 35,000ft
Origin Wx: KSLC 160720Z 12006KT 10SM FEW030 BKN039 OVC080 01/M04 A3031 RMK AO2 SNE06 P0001 T00061039
Dest. Wx: KMSP 160701Z 34008KT 10SM OVC010 01/M01 A2975 RMK AO2 T00061006
Notes:

Financial History
Total Freight: 0lbs
Average Load: 0lbs/flt
Fuel Used: 0lbs
Avg. Fuel Used: 0lbs/flt
Fuel Expense: $0
Avg. Fuel Expense: $0
Avg. Fuel Cost: $0/lbs
Total Gross Income: $0
Pilot Pay: $0
Total Expenses: $0
Total Revenue: $0
Average Revenue: $0